date,time,SUV Intensity [MED/Hr],UV Index,Daily total [MED],Since Last [MED]
28/06/2023,23:58:21,0.001,0.0,6.153,6.153
28/06/2023,23:59:20,0.001,0.0,6.153,0.0
29/06/2023,00:00:20,0.000,0.0,0.0,-6.153
29/06/2023,00:01:20,0.000,0.0,0.0,0.0
29/06/2023,00:02:21,0.000,0.0,0.0,0.0
29/06/2023,00:03:21,0.000,0.0,0.0,0.0
29/06/2023,00:04:20,0.000,0.0,0.0,0.0
29/06/2023,00:05:20,0.000,0.0,0.0,0.0
29/06/2023,00:06:21,0.000,0.0,0.0,0.0
29/06/2023,00:07:20,0.000,0.0,0.0,0.0
29/06/2023,00:08:20,0.000,0.0,0.0,0.0
29/06/2023,00:09:21,0.000,0.0,0.0,0.0
29/06/2023,00:10:20,0.000,0.0,0.0,0.0
29/06/2023,00:11:20,0.000,0.0,0.0,0.0
29/06/2023,00:12:20,0.000,0.0,0.0,0.0
29/06/2023,00:13:21,0.000,0.0,0.0,0.0
29/06/2023,00:14:20,0.000,0.0,0.0,0.0
29/06/2023,00:15:20,0.001,0.0,0.0,0.0
29/06/2023,00:16:20,0.000,0.0,0.0,0.0
29/06/2023,00:17:21,0.000,0.0,0.0,0.0
29/06/2023,00:18:20,0.000,0.0,0.0,0.0
29/06/2023,00:19:21,0.000,0.0,0.0,0.0
29/06/2023,00:20:20,0.000,0.0,0.0,0.0
29/06/2023,00:21:21,0.001,0.0,0.0,0.0
29/06/2023,00:22:20,0.001,0.0,0.0,0.0
29/06/2023,00:23:20,0.001,0.0,0.0,0.0
29/06/2023,00:24:20,0.001,0.0,0.0,0.0
29/06/2023,00:25:21,0.001,0.0,0.0,0.0
29/06/2023,00:26:20,0.001,0.0,0.0,0.0
29/06/2023,00:27:21,0.001,0.0,0.0,0.0
29/06/2023,00:28:20,0.001,0.0,0.0,0.0
29/06/2023,00:29:20,0.000,0.0,0.0,0.0
29/06/2023,00:30:20,0.000,0.0,0.0,0.0
29/06/2023,00:31:20,0.001,0.0,0.0,0.0
29/06/2023,00:32:20,0.001,0.0,0.0,0.0
29/06/2023,00:33:20,0.001,0.0,0.0,0.0
29/06/2023,00:34:21,0.001,0.0,0.0,0.0
29/06/2023,00:35:21,0.002,0.0,0.0,0.0
29/06/2023,00:36:20,0.000,0.0,0.0,0.0
29/06/2023,00:37:21,0.001,0.0,0.0,0.0
29/06/2023,00:38:20,0.001,0.0,0.0,0.0
29/06/2023,00:39:20,0.001,0.0,0.0,0.0
29/06/2023,00:40:20,0.001,0.0,0.0,0.0
29/06/2023,00:41:20,0.001,0.0,0.0,0.0
29/06/2023,00:42:21,0.001,0.0,0.0,0.0
29/06/2023,00:43:20,0.001,0.0,0.0,0.0
29/06/2023,00:44:21,0.000,0.0,0.0,0.0
29/06/2023,00:45:21,0.001,0.0,0.0,0.0
29/06/2023,00:46:20,0.000,0.0,0.0,0.0
29/06/2023,00:47:21,0.000,0.0,0.0,0.0
29/06/2023,00:48:20,0.001,0.0,0.0,0.0
29/06/2023,00:49:22,0.001,0.0,0.0,0.0
29/06/2023,00:50:21,0.001,0.0,0.0,0.0
29/06/2023,00:51:21,0.001,0.0,0.0,0.0
29/06/2023,00:52:20,0.001,0.0,0.0,0.0
29/06/2023,00:53:20,0.001,0.0,0.0,0.0
29/06/2023,00:54:21,0.001,0.0,0.0,0.0
29/06/2023,00:55:20,0.001,0.0,0.0,0.0
29/06/2023,00:56:21,0.002,0.0,0.0,0.0
29/06/2023,00:57:20,0.000,0.0,0.0,0.0
29/06/2023,00:58:20,0.000,0.0,0.0,0.0
29/06/2023,00:59:21,0.001,0.0,0.0,0.0
29/06/2023,01:00:20,0.000,0.0,0.0,0.0
29/06/2023,01:01:20,0.000,0.0,0.0,0.0
29/06/2023,01:02:20,0.000,0.0,0.0,0.0
29/06/2023,01:03:21,0.001,0.0,0.0,0.0
29/06/2023,01:04:20,0.001,0.0,0.0,0.0
29/06/2023,01:05:20,0.000,0.0,0.0,0.0
29/06/2023,01:06:21,0.001,0.0,0.0,0.0
29/06/2023,01:07:20,0.000,0.0,0.0,0.0
29/06/2023,01:08:21,0.001,0.0,0.0,0.0
29/06/2023,01:09:20,0.001,0.0,0.0,0.0
29/06/2023,01:10:20,0.001,0.0,0.0,0.0
29/06/2023,01:11:21,0.001,0.0,0.0,0.0
29/06/2023,01:12:22,0.001,0.0,0.0,0.0
29/06/2023,01:13:21,0.001,0.0,0.0,0.0
29/06/2023,01:14:20,0.001,0.0,0.0,0.0
29/06/2023,01:15:21,0.001,0.0,0.0,0.0
29/06/2023,01:16:20,0.001,0.0,0.0,0.0
29/06/2023,01:17:21,0.001,0.0,0.0,0.0
29/06/2023,01:18:21,0.001,0.0,0.0,0.0
29/06/2023,01:19:20,0.001,0.0,0.0,0.0
29/06/2023,01:20:20,0.000,0.0,0.0,0.0
29/06/2023,01:21:20,0.001,0.0,0.0,0.0
29/06/2023,01:22:20,0.001,0.0,0.0,0.0
29/06/2023,01:23:21,0.001,0.0,0.0,0.0
29/06/2023,01:24:20,0.001,0.0,0.0,0.0
29/06/2023,01:25:20,0.001,0.0,0.0,0.0
29/06/2023,01:26:20,0.001,0.0,0.0,0.0
29/06/2023,01:27:21,0.001,0.0,0.0,0.0
29/06/2023,01:28:20,0.001,0.0,0.0,0.0
29/06/2023,01:29:20,0.000,0.0,0.0,0.0
29/06/2023,01:30:21,0.001,0.0,0.0,0.0
29/06/2023,01:31:20,0.001,0.0,0.0,0.0
29/06/2023,01:32:21,0.001,0.0,0.0,0.0
29/06/2023,01:33:20,0.001,0.0,0.0,0.0
29/06/2023,01:34:20,0.001,0.0,0.0,0.0
29/06/2023,01:35:21,0.001,0.0,0.0,0.0
29/06/2023,01:36:20,0.001,0.0,0.0,0.0
29/06/2023,01:37:21,0.001,0.0,0.0,0.0
29/06/2023,01:38:21,0.000,0.0,0.0,0.0
29/06/2023,01:39:20,0.001,0.0,0.0,0.0
29/06/2023,01:40:20,0.002,0.0,0.0,0.0
29/06/2023,01:41:21,0.000,0.0,0.0,0.0
29/06/2023,01:42:21,0.001,0.0,0.0,0.0
29/06/2023,01:43:21,0.002,0.0,0.0,0.0
29/06/2023,01:44:20,0.000,0.0,0.0,0.0
29/06/2023,01:45:20,0.001,0.0,0.0,0.0
29/06/2023,01:46:20,0.001,0.0,0.0,0.0
29/06/2023,01:47:21,0.001,0.0,0.0,0.0
29/06/2023,01:48:21,0.001,0.0,0.0,0.0
29/06/2023,01:49:20,0.001,0.0,0.0,0.0
29/06/2023,01:50:21,0.001,0.0,0.0,0.0
29/06/2023,01:51:20,0.001,0.0,0.0,0.0
29/06/2023,01:52:21,0.001,0.0,0.0,0.0
29/06/2023,01:53:20,0.001,0.0,0.0,0.0
29/06/2023,01:54:21,0.001,0.0,0.0,0.0
29/06/2023,01:55:21,0.001,0.0,0.0,0.0
29/06/2023,01:56:20,0.001,0.0,0.0,0.0
29/06/2023,01:57:21,0.001,0.0,0.0,0.0
29/06/2023,01:58:20,0.001,0.0,0.0,0.0
29/06/2023,01:59:21,0.001,0.0,0.0,0.0
29/06/2023,02:00:21,0.001,0.0,0.0,0.0
29/06/2023,02:01:20,0.001,0.0,0.0,0.0
29/06/2023,02:02:21,0.001,0.0,0.0,0.0
29/06/2023,02:03:20,0.001,0.0,0.0,0.0
29/06/2023,02:04:21,0.000,0.0,0.0,0.0
29/06/2023,02:05:21,0.000,0.0,0.0,0.0
29/06/2023,02:06:20,0.001,0.0,0.0,0.0
29/06/2023,02:07:21,0.001,0.0,0.0,0.0
29/06/2023,02:08:20,0.001,0.0,0.0,0.0
29/06/2023,02:09:21,0.001,0.0,0.0,0.0
29/06/2023,02:10:20,0.001,0.0,0.0,0.0
29/06/2023,02:11:21,0.001,0.0,0.0,0.0
29/06/2023,02:12:20,0.001,0.0,0.0,0.0
29/06/2023,02:13:21,0.001,0.0,0.0,0.0
29/06/2023,02:14:21,0.000,0.0,0.0,0.0
29/06/2023,02:15:21,0.001,0.0,0.0,0.0
29/06/2023,02:16:20,0.001,0.0,0.0,0.0
29/06/2023,02:17:21,0.000,0.0,0.0,0.0
29/06/2023,02:18:21,0.000,0.0,0.0,0.0
29/06/2023,02:19:25,0.002,0.0,0.0,0.0
29/06/2023,02:20:22,0.001,0.0,0.0,0.0
29/06/2023,02:21:20,0.002,0.0,0.0,0.0
29/06/2023,02:22:21,0.000,0.0,0.0,0.0
29/06/2023,02:23:20,0.001,0.0,0.0,0.0
29/06/2023,02:24:20,0.001,0.0,0.0,0.0
29/06/2023,02:25:20,0.002,0.0,0.0,0.0
29/06/2023,02:26:20,0.001,0.0,0.0,0.0
29/06/2023,02:27:21,0.001,0.0,0.0,0.0
29/06/2023,02:28:20,0.001,0.0,0.0,0.0
29/06/2023,02:29:21,0.001,0.0,0.0,0.0
29/06/2023,02:30:21,0.000,0.0,0.0,0.0
29/06/2023,02:31:20,0.001,0.0,0.0,0.0
29/06/2023,02:32:21,0.002,0.0,0.0,0.0
29/06/2023,02:33:20,0.001,0.0,0.0,0.0
29/06/2023,02:34:21,0.001,0.0,0.0,0.0
29/06/2023,02:35:20,0.001,0.0,0.0,0.0
29/06/2023,02:36:20,0.001,0.0,0.0,0.0
29/06/2023,02:37:21,0.001,0.0,0.0,0.0
29/06/2023,02:38:21,0.001,0.0,0.0,0.0
29/06/2023,02:39:20,0.000,0.0,0.0,0.0
29/06/2023,02:40:21,0.001,0.0,0.0,0.0
29/06/2023,02:41:22,0.002,0.0,0.0,0.0
29/06/2023,02:42:21,0.001,0.0,0.0,0.0
29/06/2023,02:43:20,0.001,0.0,0.0,0.0
29/06/2023,02:44:21,0.001,0.0,0.0,0.0
29/06/2023,02:45:20,0.001,0.0,0.0,0.0
29/06/2023,02:46:21,0.001,0.0,0.0,0.0
29/06/2023,02:47:20,0.001,0.0,0.0,0.0
29/06/2023,02:48:20,0.001,0.0,0.0,0.0
29/06/2023,02:49:21,0.001,0.0,0.0,0.0
29/06/2023,02:50:20,0.000,0.0,0.0,0.0
29/06/2023,02:51:21,0.001,0.0,0.0,0.0
29/06/2023,02:52:20,0.001,0.0,0.0,0.0
29/06/2023,02:53:21,0.001,0.0,0.0,0.0
29/06/2023,02:54:21,0.001,0.0,0.0,0.0
29/06/2023,02:55:20,0.000,0.0,0.0,0.0
29/06/2023,02:56:21,0.001,0.0,0.0,0.0
29/06/2023,02:57:20,0.000,0.0,0.0,0.0
29/06/2023,02:58:21,0.001,0.0,0.0,0.0
29/06/2023,02:59:21,0.001,0.0,0.0,0.0
29/06/2023,03:00:21,0.001,0.0,0.0,0.0
29/06/2023,03:01:21,0.001,0.0,0.0,0.0
29/06/2023,03:02:20,0.000,0.0,0.0,0.0
29/06/2023,03:03:21,0.001,0.0,0.0,0.0
29/06/2023,03:04:20,0.002,0.0,0.0,0.0
29/06/2023,03:05:20,0.001,0.0,0.0,0.0
29/06/2023,03:06:20,0.001,0.0,0.0,0.0
29/06/2023,03:07:21,0.001,0.0,0.0,0.0
29/06/2023,03:08:20,0.002,0.0,0.0,0.0
29/06/2023,03:09:21,0.000,0.0,0.0,0.0
29/06/2023,03:10:20,0.001,0.0,0.0,0.0
29/06/2023,03:11:21,0.000,0.0,0.0,0.0
29/06/2023,03:12:20,0.001,0.0,0.0,0.0
29/06/2023,03:13:21,0.001,0.0,0.0,0.0
29/06/2023,03:14:21,0.001,0.0,0.0,0.0
29/06/2023,03:15:20,0.000,0.0,0.0,0.0
29/06/2023,03:16:21,0.001,0.0,0.0,0.0
29/06/2023,03:17:20,0.001,0.0,0.0,0.0
29/06/2023,03:18:21,0.001,0.0,0.0,0.0
29/06/2023,03:19:20,0.000,0.0,0.0,0.0
29/06/2023,03:20:21,0.001,0.0,0.0,0.0
29/06/2023,03:21:21,0.001,0.0,0.0,0.0
29/06/2023,03:22:20,0.001,0.0,0.0,0.0
29/06/2023,03:23:20,0.001,0.0,0.0,0.0
29/06/2023,03:24:20,0.001,0.0,0.0,0.0
29/06/2023,03:25:21,0.001,0.0,0.0,0.0
29/06/2023,03:26:20,0.002,0.0,0.0,0.0
29/06/2023,03:27:21,0.001,0.0,0.0,0.0
29/06/2023,03:28:21,0.002,0.0,0.0,0.0
29/06/2023,03:29:21,0.001,0.0,0.0,0.0
29/06/2023,03:30:20,0.001,0.0,0.0,0.0
29/06/2023,03:31:21,0.001,0.0,0.0,0.0
29/06/2023,03:32:21,0.002,0.0,0.0,0.0
29/06/2023,03:33:21,0.002,0.0,0.0,0.0
29/06/2023,03:34:20,0.001,0.0,0.0,0.0
29/06/2023,03:35:21,0.001,0.0,0.0,0.0
29/06/2023,03:36:20,0.001,0.0,0.0,0.0
29/06/2023,03:37:20,0.001,0.0,0.0,0.0
29/06/2023,03:38:21,0.002,0.0,0.0,0.0
29/06/2023,03:39:21,0.001,0.0,0.0,0.0
29/06/2023,03:40:21,0.002,0.0,0.0,0.0
29/06/2023,03:41:20,0.001,0.0,0.0,0.0
29/06/2023,03:42:21,0.002,0.0,0.0,0.0
29/06/2023,03:43:20,0.002,0.0,0.0,0.0
29/06/2023,03:44:21,0.001,0.0,0.0,0.0
29/06/2023,03:45:21,0.001,0.0,0.0,0.0
29/06/2023,03:46:20,0.002,0.0,0.0,0.0
29/06/2023,03:47:20,0.002,0.0,0.0,0.0
29/06/2023,03:48:21,0.001,0.0,0.0,0.0
29/06/2023,03:49:20,0.002,0.0,0.0,0.0
29/06/2023,03:50:21,0.002,0.0,0.0,0.0
29/06/2023,03:51:21,0.001,0.0,0.0,0.0
29/06/2023,03:52:21,0.002,0.0,0.0,0.0
29/06/2023,03:53:21,0.002,0.0,0.0,0.0
29/06/2023,03:54:20,0.001,0.0,0.0,0.0
29/06/2023,03:55:21,0.002,0.0,0.0,0.0
29/06/2023,03:56:20,0.002,0.0,0.0,0.0
29/06/2023,03:57:21,0.002,0.0,0.0,0.0
29/06/2023,03:58:20,0.001,0.0,0.0,0.0
29/06/2023,03:59:21,0.001,0.0,0.0,0.0
29/06/2023,04:00:20,0.002,0.0,0.0,0.0
29/06/2023,04:01:21,0.002,0.0,0.0,0.0
29/06/2023,04:02:21,0.001,0.0,0.0,0.0
29/06/2023,04:03:20,0.000,0.0,0.0,0.0
29/06/2023,04:04:21,0.002,0.0,0.0,0.0
29/06/2023,04:05:20,0.002,0.0,0.0,0.0
29/06/2023,04:06:21,0.002,0.0,0.0,0.0
29/06/2023,04:07:21,0.002,0.0,0.0,0.0
29/06/2023,04:08:21,0.002,0.0,0.0,0.0
29/06/2023,04:09:20,0.002,0.0,0.0,0.0
29/06/2023,04:10:21,0.002,0.0,0.0,0.0
29/06/2023,04:11:20,0.003,0.0,0.0,0.0
29/06/2023,04:12:20,0.002,0.0,0.0,0.0
29/06/2023,04:13:21,0.002,0.0,0.0,0.0
29/06/2023,04:14:20,0.001,0.0,0.0,0.0
29/06/2023,04:15:21,0.001,0.0,0.0,0.0
29/06/2023,04:16:20,0.002,0.0,0.0,0.0
29/06/2023,04:17:21,0.002,0.0,0.0,0.0
29/06/2023,04:18:20,0.002,0.0,0.0,0.0
29/06/2023,04:19:21,0.004,0.0,0.0,0.0
29/06/2023,04:20:20,0.003,0.0,0.0,0.0
29/06/2023,04:21:21,0.003,0.0,0.0,0.0
29/06/2023,04:22:21,0.002,0.0,0.0,0.0
29/06/2023,04:23:20,0.002,0.0,0.0,0.0
29/06/2023,04:24:21,0.003,0.0,0.0,0.0
29/06/2023,04:25:25,0.002,0.0,0.0,0.0
29/06/2023,04:26:22,0.001,0.0,0.0,0.0
29/06/2023,04:27:21,0.002,0.0,0.0,0.0
29/06/2023,04:28:21,0.003,0.0,0.0,0.0
29/06/2023,04:29:21,0.004,0.0,0.0,0.0
29/06/2023,04:30:20,0.003,0.0,0.0,0.0
29/06/2023,04:31:21,0.003,0.0,0.0,0.0
29/06/2023,04:32:21,0.003,0.0,0.0,0.0
29/06/2023,04:33:20,0.003,0.0,0.0,0.0
29/06/2023,04:34:20,0.004,0.0,0.0,0.0
29/06/2023,04:35:21,0.004,0.0,0.0,0.0
29/06/2023,04:36:20,0.004,0.0,0.0,0.0
29/06/2023,04:37:21,0.005,0.0,0.0,0.0
29/06/2023,04:38:20,0.005,0.0,0.0,0.0
29/06/2023,04:39:21,0.005,0.0,0.0,0.0
29/06/2023,04:40:20,0.005,0.0,0.0,0.0
29/06/2023,04:41:21,0.007,0.0,0.0,0.0
29/06/2023,04:42:20,0.007,0.0,0.0,0.0
29/06/2023,04:43:20,0.007,0.0,0.0,0.0
29/06/2023,04:44:20,0.009,0.0,0.0,0.0
29/06/2023,04:45:20,0.009,0.0,0.001,0.001
29/06/2023,04:46:21,0.009,0.0,0.001,0.0
29/06/2023,04:47:21,0.009,0.0,0.001,0.0
29/06/2023,04:48:21,0.009,0.0,0.001,0.0
29/06/2023,04:49:20,0.009,0.0,0.001,0.0
29/06/2023,04:50:20,0.009,0.0,0.001,0.0
29/06/2023,04:51:21,0.010,0.0,0.001,0.0
29/06/2023,04:52:21,0.010,0.0,0.002,0.001
29/06/2023,04:53:20,0.011,0.0,0.002,0.0
29/06/2023,04:54:21,0.009,0.0,0.002,0.0
29/06/2023,04:55:21,0.010,0.0,0.002,0.0
29/06/2023,04:56:20,0.009,0.0,0.002,0.0
29/06/2023,04:57:21,0.010,0.0,0.002,0.0
29/06/2023,04:58:21,0.011,0.0,0.003,0.001
29/06/2023,04:59:21,0.010,0.0,0.003,0.0
29/06/2023,05:00:20,0.009,0.0,0.003,0.0
29/06/2023,05:01:21,0.010,0.0,0.003,0.0
29/06/2023,05:02:22,0.010,0.0,0.003,0.0
29/06/2023,05:03:21,0.011,0.0,0.003,0.0
29/06/2023,05:04:20,0.010,0.0,0.004,0.001
29/06/2023,05:05:21,0.010,0.0,0.004,0.0
29/06/2023,05:06:21,0.010,0.0,0.004,0.0
29/06/2023,05:07:21,0.007,0.0,0.004,0.0
29/06/2023,05:08:20,0.008,0.0,0.004,0.0
29/06/2023,05:09:21,0.007,0.0,0.004,0.0
29/06/2023,05:10:20,0.008,0.0,0.005,0.001
29/06/2023,05:11:21,0.007,0.0,0.005,0.0
29/06/2023,05:12:20,0.008,0.0,0.005,0.0
29/06/2023,05:13:21,0.009,0.0,0.005,0.0
29/06/2023,05:14:21,0.009,0.0,0.005,0.0
29/06/2023,05:15:20,0.010,0.0,0.005,0.0
29/06/2023,05:16:21,0.010,0.0,0.005,0.0
29/06/2023,05:17:20,0.010,0.0,0.006,0.001
29/06/2023,05:18:21,0.011,0.0,0.006,0.0
29/06/2023,05:19:20,0.012,0.0,0.006,0.0
29/06/2023,05:20:21,0.012,0.0,0.006,0.0
29/06/2023,05:21:21,0.017,0.0,0.006,0.0
29/06/2023,05:22:20,0.017,0.0,0.007,0.001
29/06/2023,05:23:21,0.019,0.0,0.007,0.0
29/06/2023,05:24:21,0.020,0.0,0.007,0.0
29/06/2023,05:25:20,0.022,0.0,0.008,0.001
29/06/2023,05:26:21,0.026,0.0,0.008,0.0
29/06/2023,05:27:21,0.027,0.0,0.008,0.0
29/06/2023,05:28:21,0.027,0.0,0.009,0.001
29/06/2023,05:29:20,0.027,0.0,0.009,0.0
29/06/2023,05:30:21,0.027,0.0,0.01,0.001
29/06/2023,05:31:21,0.024,0.0,0.01,0.0
29/06/2023,05:32:20,0.023,0.0,0.011,0.001
29/06/2023,05:33:21,0.022,0.0,0.011,0.0
29/06/2023,05:34:21,0.021,0.0,0.011,0.0
29/06/2023,05:35:21,0.020,0.0,0.012,0.001
29/06/2023,05:36:21,0.024,0.0,0.012,0.0
29/06/2023,05:37:24,0.026,0.0,0.012,0.0
29/06/2023,05:38:24,0.027,0.0,0.013,0.001
29/06/2023,05:39:22,0.028,0.0,0.013,0.0
29/06/2023,05:40:20,0.026,0.0,0.014,0.001
29/06/2023,05:41:21,0.024,0.0,0.014,0.0
29/06/2023,05:42:20,0.025,0.0,0.015,0.001
29/06/2023,05:43:21,0.025,0.0,0.015,0.0
29/06/2023,05:44:21,0.025,0.0,0.015,0.0
29/06/2023,05:45:21,0.026,0.0,0.016,0.001
29/06/2023,05:46:20,0.026,0.0,0.016,0.0
29/06/2023,05:47:20,0.029,0.0,0.017,0.001
29/06/2023,05:48:21,0.034,0.0,0.017,0.0
29/06/2023,05:49:21,0.038,0.0,0.018,0.001
29/06/2023,05:50:20,0.042,0.0,0.019,0.001
29/06/2023,05:51:21,0.043,0.0,0.019,0.0
29/06/2023,05:52:21,0.043,0.0,0.02,0.001
29/06/2023,05:53:20,0.042,0.0,0.021,0.001
29/06/2023,05:54:21,0.040,0.0,0.021,0.0
29/06/2023,05:55:21,0.037,0.0,0.022,0.001
29/06/2023,05:56:21,0.034,0.0,0.023,0.001
29/06/2023,05:57:21,0.036,0.0,0.023,0.0
29/06/2023,05:58:20,0.041,0.0,0.024,0.001
29/06/2023,05:59:21,0.045,0.0,0.024,0.0
29/06/2023,06:00:20,0.046,0.0,0.025,0.001
29/06/2023,06:01:21,0.047,0.0,0.026,0.001
29/06/2023,06:02:21,0.048,0.0,0.027,0.001
29/06/2023,06:03:21,0.049,0.0,0.028,0.001
29/06/2023,06:04:21,0.051,0.0,0.028,0.0
29/06/2023,06:05:20,0.058,0.0,0.029,0.001
29/06/2023,06:06:21,0.063,0.0,0.03,0.001
29/06/2023,06:07:21,0.071,0.0,0.031,0.001
29/06/2023,06:08:21,0.079,0.0,0.033,0.002
29/06/2023,06:09:21,0.084,0.0,0.034,0.001
29/06/2023,06:10:21,0.089,0.0,0.036,0.002
29/06/2023,06:11:21,0.095,0.0,0.037,0.001
29/06/2023,06:12:21,0.100,0.0,0.039,0.002
29/06/2023,06:13:21,0.107,0.0,0.04,0.001
29/06/2023,06:14:20,0.109,0.0,0.042,0.002
29/06/2023,06:15:21,0.110,0.0,0.044,0.002
29/06/2023,06:16:21,0.113,0.0,0.046,0.002
29/06/2023,06:17:21,0.117,0.0,0.048,0.002
29/06/2023,06:18:21,0.120,0.0,0.05,0.002
29/06/2023,06:19:21,0.123,0.0,0.052,0.002
29/06/2023,06:20:20,0.124,0.0,0.054,0.002
29/06/2023,06:21:21,0.122,0.0,0.056,0.002
29/06/2023,06:22:21,0.119,0.0,0.058,0.002
29/06/2023,06:23:22,0.118,0.0,0.06,0.002
29/06/2023,06:24:21,0.128,0.0,0.062,0.002
29/06/2023,06:25:21,0.129,0.0,0.064,0.002
29/06/2023,06:26:21,0.131,0.0,0.066,0.002
29/06/2023,06:27:21,0.132,0.0,0.068,0.002
29/06/2023,06:28:21,0.141,0.0,0.071,0.003
29/06/2023,06:29:21,0.152,0.0,0.073,0.002
29/06/2023,06:30:21,0.157,0.0,0.076,0.003
29/06/2023,06:31:21,0.169,0.0,0.078,0.002
29/06/2023,06:32:21,0.174,0.0,0.081,0.003
29/06/2023,06:33:21,0.171,0.0,0.084,0.003
29/06/2023,06:34:20,0.161,0.0,0.087,0.003
29/06/2023,06:35:21,0.174,0.0,0.09,0.003
29/06/2023,06:36:21,0.173,0.0,0.093,0.003
29/06/2023,06:37:21,0.169,0.0,0.095,0.002
29/06/2023,06:38:21,0.184,0.0,0.098,0.003
29/06/2023,06:39:21,0.199,0.0,0.102,0.004
29/06/2023,06:40:21,0.207,0.0,0.105,0.003
29/06/2023,06:41:20,0.216,0.0,0.108,0.003
29/06/2023,06:42:21,0.213,0.0,0.112,0.004
29/06/2023,06:43:21,0.235,1.0,0.116,0.004
29/06/2023,06:44:21,0.229,1.0,0.12,0.004
29/06/2023,06:45:21,0.220,1.0,0.123,0.003
29/06/2023,06:46:21,0.209,0.0,0.127,0.004
29/06/2023,06:47:21,0.218,1.0,0.13,0.003
29/06/2023,06:48:21,0.232,1.0,0.134,0.004
29/06/2023,06:49:20,0.222,1.0,0.138,0.004
29/06/2023,06:50:23,0.226,1.0,0.142,0.004
29/06/2023,06:51:21,0.274,1.0,0.146,0.004
29/06/2023,06:52:21,0.303,1.0,0.151,0.005
29/06/2023,06:53:20,0.282,1.0,0.155,0.004
29/06/2023,06:54:21,0.290,1.0,0.16,0.005
29/06/2023,06:55:22,0.274,1.0,0.165,0.005
29/06/2023,06:56:21,0.272,1.0,0.169,0.004
29/06/2023,06:57:20,0.292,1.0,0.174,0.005
29/06/2023,06:58:21,0.303,1.0,0.179,0.005
29/06/2023,06:59:20,0.304,1.0,0.184,0.005
29/06/2023,07:00:21,0.360,1.0,0.19,0.006
29/06/2023,07:01:21,0.326,1.0,0.195,0.005
29/06/2023,07:02:21,0.318,1.0,0.201,0.006
29/06/2023,07:03:21,0.329,1.0,0.207,0.006
29/06/2023,07:04:21,0.387,1.0,0.212,0.005
29/06/2023,07:05:21,0.336,1.0,0.219,0.007
29/06/2023,07:06:20,0.375,1.0,0.225,0.006
29/06/2023,07:07:21,0.377,1.0,0.232,0.007
29/06/2023,07:08:21,0.401,1.0,0.238,0.006
29/06/2023,07:09:21,0.391,1.0,0.245,0.007
29/06/2023,07:10:21,0.394,1.0,0.251,0.006
29/06/2023,07:11:21,0.402,1.0,0.258,0.007
29/06/2023,07:12:20,0.377,1.0,0.264,0.006
29/06/2023,07:13:21,0.415,1.0,0.271,0.007
29/06/2023,07:14:21,0.399,1.0,0.278,0.007
29/06/2023,07:15:23,0.386,1.0,0.285,0.007
29/06/2023,07:16:21,0.414,1.0,0.291,0.006
29/06/2023,07:17:21,0.356,1.0,0.297,0.006
29/06/2023,07:18:20,0.457,1.0,0.304,0.007
29/06/2023,07:19:21,0.425,1.0,0.311,0.007
29/06/2023,07:20:21,0.374,1.0,0.318,0.007
29/06/2023,07:21:21,0.450,1.0,0.324,0.006
29/06/2023,07:22:21,0.485,1.0,0.332,0.008
29/06/2023,07:23:21,0.482,1.0,0.34,0.008
29/06/2023,07:24:21,0.494,1.0,0.348,0.008
29/06/2023,07:25:21,0.467,1.0,0.356,0.008
29/06/2023,07:26:21,0.478,1.0,0.363,0.007
29/06/2023,07:27:21,0.442,1.0,0.371,0.008
29/06/2023,07:28:21,0.440,1.0,0.378,0.007
29/06/2023,07:29:21,0.520,1.0,0.386,0.008
29/06/2023,07:30:21,0.502,1.0,0.395,0.009
29/06/2023,07:31:21,0.481,1.0,0.403,0.008
29/06/2023,07:32:21,0.470,1.0,0.411,0.008
29/06/2023,07:33:21,0.535,1.0,0.42,0.009
29/06/2023,07:34:21,0.538,1.0,0.428,0.008
29/06/2023,07:35:21,0.543,1.0,0.438,0.01
29/06/2023,07:36:21,0.516,1.0,0.446,0.008
29/06/2023,07:37:20,0.558,1.0,0.455,0.009
29/06/2023,07:38:21,0.561,1.0,0.464,0.009
29/06/2023,07:39:21,0.564,1.0,0.474,0.01
29/06/2023,07:40:21,0.556,1.0,0.483,0.009
29/06/2023,07:41:21,0.457,1.0,0.491,0.008
29/06/2023,07:42:21,0.584,1.0,0.501,0.01
29/06/2023,07:43:21,0.596,1.0,0.51,0.009
29/06/2023,07:44:21,0.600,1.0,0.521,0.011
29/06/2023,07:45:21,0.609,1.0,0.53,0.009
29/06/2023,07:46:21,0.623,1.0,0.541,0.011
29/06/2023,07:47:21,0.624,1.0,0.551,0.01
29/06/2023,07:48:21,0.627,1.0,0.561,0.01
29/06/2023,07:49:21,0.628,1.0,0.572,0.011
29/06/2023,07:50:21,0.629,1.0,0.582,0.01
29/06/2023,07:51:21,0.625,1.0,0.593,0.011
29/06/2023,07:52:21,0.611,1.0,0.604,0.011
29/06/2023,07:53:21,0.605,1.0,0.613,0.009
29/06/2023,07:54:21,0.619,1.0,0.624,0.011
29/06/2023,07:55:21,0.616,1.0,0.634,0.01
29/06/2023,07:56:21,0.625,1.0,0.644,0.01
29/06/2023,07:57:21,0.628,1.0,0.654,0.01
29/06/2023,07:58:21,0.629,1.0,0.665,0.011
29/06/2023,07:59:21,0.639,1.0,0.675,0.01
29/06/2023,08:00:21,0.643,1.0,0.686,0.011
29/06/2023,08:01:21,0.653,2.0,0.697,0.011
29/06/2023,08:02:21,0.653,2.0,0.708,0.011
29/06/2023,08:03:21,0.570,1.0,0.718,0.01
29/06/2023,08:04:21,0.669,2.0,0.729,0.011
29/06/2023,08:05:21,0.660,2.0,0.74,0.011
29/06/2023,08:06:21,0.662,2.0,0.751,0.011
29/06/2023,08:07:21,0.666,2.0,0.761,0.01
29/06/2023,08:08:21,0.669,2.0,0.773,0.012
29/06/2023,08:09:21,0.675,2.0,0.784,0.011
29/06/2023,08:10:21,0.640,1.0,0.795,0.011
29/06/2023,08:11:21,0.685,2.0,0.806,0.011
29/06/2023,08:12:21,0.692,2.0,0.817,0.011
29/06/2023,08:13:21,0.700,2.0,0.829,0.012
29/06/2023,08:14:21,0.707,2.0,0.84,0.011
29/06/2023,08:15:21,0.715,2.0,0.852,0.012
29/06/2023,08:16:21,0.723,2.0,0.865,0.013
29/06/2023,08:17:21,0.724,2.0,0.876,0.011
29/06/2023,08:18:21,0.731,2.0,0.888,0.012
29/06/2023,08:19:21,0.739,2.0,0.901,0.013
29/06/2023,08:20:21,0.743,2.0,0.913,0.012
29/06/2023,08:21:22,0.753,2.0,0.926,0.013
29/06/2023,08:22:21,0.757,2.0,0.938,0.012
29/06/2023,08:23:21,0.759,2.0,0.951,0.013
29/06/2023,08:24:23,0.758,2.0,0.964,0.013
29/06/2023,08:25:21,0.762,2.0,0.976,0.012
29/06/2023,08:26:21,0.770,2.0,0.989,0.013
29/06/2023,08:27:21,0.775,2.0,1.002,0.013
29/06/2023,08:28:21,0.783,2.0,1.015,0.013
29/06/2023,08:29:21,0.782,2.0,1.028,0.013
29/06/2023,08:30:21,0.701,2.0,1.04,0.012
29/06/2023,08:31:21,0.782,2.0,1.052,0.012
29/06/2023,08:32:21,0.785,2.0,1.065,0.013
29/06/2023,08:33:22,0.656,2.0,1.077,0.012
29/06/2023,08:34:21,0.792,2.0,1.088,0.011
29/06/2023,08:35:21,0.800,2.0,1.102,0.014
29/06/2023,08:36:21,0.745,2.0,1.115,0.013
29/06/2023,08:37:21,0.811,2.0,1.127,0.012
29/06/2023,08:38:21,0.804,2.0,1.141,0.014
29/06/2023,08:39:21,0.799,2.0,1.155,0.014
29/06/2023,08:40:21,0.829,2.0,1.168,0.013
29/06/2023,08:41:21,0.834,2.0,1.182,0.014
29/06/2023,08:42:21,0.842,2.0,1.196,0.014
29/06/2023,08:43:21,0.846,2.0,1.21,0.014
29/06/2023,08:44:21,0.852,2.0,1.224,0.014
29/06/2023,08:45:21,0.856,2.0,1.238,0.014
29/06/2023,08:46:21,0.865,2.0,1.252,0.014
29/06/2023,08:47:21,0.869,2.0,1.267,0.015
29/06/2023,08:48:22,0.878,2.0,1.282,0.015
29/06/2023,08:49:21,0.884,2.0,1.296,0.014
29/06/2023,08:50:20,0.890,2.0,1.311,0.015
29/06/2023,08:51:21,0.901,2.0,1.326,0.015
29/06/2023,08:52:21,0.906,2.0,1.341,0.015
29/06/2023,08:53:21,0.902,2.0,1.356,0.015
29/06/2023,08:54:21,0.917,2.0,1.371,0.015
29/06/2023,08:55:21,0.928,2.0,1.386,0.015
29/06/2023,08:56:21,0.935,2.0,1.402,0.016
29/06/2023,08:57:21,0.940,2.0,1.417,0.015
29/06/2023,08:58:21,0.946,2.0,1.434,0.017
29/06/2023,08:59:21,0.954,2.0,1.449,0.015
29/06/2023,09:00:21,0.958,2.0,1.465,0.016
29/06/2023,09:01:21,0.969,2.0,1.481,0.016
29/06/2023,09:02:21,0.976,2.0,1.497,0.016
29/06/2023,09:03:23,0.983,2.0,1.514,0.017
29/06/2023,09:04:20,0.985,2.0,1.53,0.016
29/06/2023,09:05:21,0.995,2.0,1.546,0.016
29/06/2023,09:06:21,0.998,2.0,1.564,0.018
29/06/2023,09:07:21,1.002,2.0,1.58,0.016
29/06/2023,09:08:21,1.012,2.0,1.596,0.016
29/06/2023,09:09:21,1.020,2.0,1.613,0.017
29/06/2023,09:10:22,1.026,2.0,1.631,0.018
29/06/2023,09:11:21,1.030,2.0,1.648,0.017
29/06/2023,09:12:21,1.011,2.0,1.664,0.016
29/06/2023,09:13:21,1.033,2.0,1.681,0.017
29/06/2023,09:14:21,1.044,2.0,1.699,0.018
29/06/2023,09:15:21,1.046,2.0,1.716,0.017
29/06/2023,09:16:21,1.061,2.0,1.734,0.018
29/06/2023,09:17:21,1.065,2.0,1.751,0.017
29/06/2023,09:18:21,1.075,2.0,1.769,0.018
29/06/2023,09:19:21,1.086,2.0,1.787,0.018
29/06/2023,09:20:21,1.094,3.0,1.805,0.018
29/06/2023,09:21:21,1.113,3.0,1.823,0.018
29/06/2023,09:22:21,1.131,3.0,1.842,0.019
29/06/2023,09:23:21,1.137,3.0,1.861,0.019
29/06/2023,09:24:21,1.138,3.0,1.88,0.019
29/06/2023,09:25:21,1.130,3.0,1.899,0.019
29/06/2023,09:26:22,1.138,3.0,1.918,0.019
29/06/2023,09:27:21,1.150,3.0,1.937,0.019
29/06/2023,09:28:21,1.169,3.0,1.957,0.02
29/06/2023,09:29:22,1.173,3.0,1.976,0.019
29/06/2023,09:30:21,1.178,3.0,1.995,0.019
29/06/2023,09:31:21,1.162,3.0,2.015,0.02
29/06/2023,09:32:21,0.878,2.0,2.033,0.018
29/06/2023,09:33:21,1.156,3.0,2.049,0.016
29/06/2023,09:34:21,1.192,3.0,2.068,0.019
29/06/2023,09:35:21,1.212,3.0,2.088,0.02
29/06/2023,09:36:21,1.216,3.0,2.108,0.02
29/06/2023,09:37:21,1.227,3.0,2.128,0.02
29/06/2023,09:38:21,1.246,3.0,2.149,0.021
29/06/2023,09:39:21,1.039,2.0,2.166,0.017
29/06/2023,09:40:21,1.229,3.0,2.185,0.019
29/06/2023,09:41:22,1.261,3.0,2.206,0.021
29/06/2023,09:42:21,1.263,3.0,2.227,0.021
29/06/2023,09:43:21,1.273,3.0,2.247,0.02
29/06/2023,09:44:21,1.278,3.0,2.269,0.022
29/06/2023,09:45:22,1.286,3.0,2.29,0.021
29/06/2023,09:46:21,1.223,3.0,2.31,0.02
29/06/2023,09:47:21,1.279,3.0,2.332,0.022
29/06/2023,09:48:21,1.271,3.0,2.354,0.022
29/06/2023,09:49:21,1.247,3.0,2.374,0.02
29/06/2023,09:50:21,1.256,3.0,2.394,0.02
29/06/2023,09:51:21,1.249,3.0,2.414,0.02
29/06/2023,09:52:21,0.952,2.0,2.434,0.02
29/06/2023,09:53:21,0.978,2.0,2.45,0.016
29/06/2023,09:54:21,1.284,3.0,2.471,0.021
29/06/2023,09:55:22,1.315,3.0,2.493,0.022
29/06/2023,09:56:22,1.327,3.0,2.515,0.022
29/06/2023,09:57:22,1.342,3.0,2.537,0.022